Location: Azul
(36.7830°S, 59.8500°W)
Time: 17:04:42
(UTC-03:00)

ISS - Pass Details

Date: 07 July 2020
Orbit: 417 x 420 km, 51.6° (Epoch: 30 October)

Event Time Altitude Azimuth Distance (km) Brightness Sun altitude
Rises 18:30:52 0° 219° (SW) 2,403 0.3 -6.9°
Reaches altitude 10° 18:33:24 10° 201° (SSW) 1,531 -0.9 -7.4°
Maximum altitude 18:35:59 19° 152° (SSE) 1,076 -2.1 -7.9°
Enters shadow 18:38:20 11° 106° (ESE) 1,459 -1.7 -8.3°
